Location: Delia
(51.6321°N, 112.3740°W)
Time: 20:29:40
(UTC+00:00)

Envisat - Pass Details

Date: 02 December 2021
Orbit: 764 x 766 km, 98.2° (Epoch: 26 January)

Event Time Altitude Azimuth Distance (km) Brightness Sun altitude
Rises 11:45:38 0° 21° (NNE) 3,247 6.5 -31.5°
Reaches altitude 10° 11:48:13 10° 32° (NNE) 2,316 5.9 -31.1°
Maximum altitude 11:52:43 30° 94° (E) 1,342 4.8 -30.4°
Drops below altitude 10° 11:57:10 10° 155° (SSE) 2,299 5.7 -29.7°
Sets 11:59:43 0° 166° (SSE) 3,220 6.4 -29.3°
